Regional Weather Roundup
Issued by NWS

Home | Current Version | Previous Version | Graphics & Text | Print | Product List | Glossary On
Versions: 1 2 3 4 5 6 7 8 9 10 11 12 13 14 15 16 17 18 19 20 21 22 23 24 25 26 27
000
ASUS45 KPSR 090110
RWRAZ

ARIZONA HOURLY REGIONAL WEATHER ROUNDUP
NATIONAL WEATHER SERVICE PHOENIX AZ
600 PM MST THU DEC 08 2016

NOTE: FAIR INDICATES FEW OR NO CLOUDS BELOW 12,000 FEET WITH NO
SIGNIFICANT WEATHER AND/OR OBSTRUCTIONS TO VISIBILITY.

AZZ001>003-036-090200-
NORTHWEST ARIZONA

CITY           SKY/WX    TMP DP  RH WIND       PRES   REMARKS
BULLHEAD CITY  MOCLDY    57  10  15 CALM      30.22R
KINGMAN        PTCLDY    47  18  31 SW10      30.22R
$$

AZZ004>008-015-016-018-090200-
NORTH CENTRAL ARIZONA

CITY           SKY/WX    TMP DP  RH WIND       PRES   REMARKS
GRAND CANYON   PTCLDY    33  22  63 CALM      30.26R
WILLIAMS       PTCLDY    39  23  52 S5        30.27R
PRESCOTT       CLEAR     46  31  55 S5        30.24R
FLAGSTAFF      PTCLDY    32  22  66 NW5       30.27R WCI  27
PAYSON         PTCLDY    46  32  57 CALM      30.28R
PAGE           PTCLDY    38   4  24 CALM      30.25R
$$

AZZ009>014-017-090200-
NORTHEAST ARIZONA

CITY           SKY/WX    TMP DP  RH WIND       PRES   REMARKS
WINSLOW        CLEAR     37  15  40 NW6       30.25R WCI  32
SAINT JOHNS    MOCLDY    40  25  55 CALM      30.23R
WINDOW ROCK    PTCLDY    38  17  42 S3        30.27R
SHOW LOW       PTCLDY    41  27  56 SW8       30.26R
$$

AZZ023-090200-
GREATER PHOENIX AREA

CITY           SKY/WX    TMP DP  RH WIND       PRES   REMARKS
PHOENIX        PTCLDY    64  41  42 W6        30.16R
BUCKEYE          N/A     57  41  54 SW3       30.19S
GLENDALE       PTCLDY    64  39  39 CALM      30.19R
LUKE AFB       CLEAR     62  41  46 W5        30.16S
DEER VALLEY    CLEAR     61  40  45 W5        30.17R
SCOTTSDALE     CLEAR     63  40  42 CALM      30.18S
MESA-FALCON    CLEAR    N/A N/A N/A W6        30.14S
MESA-GATEWAY   PTCLDY    61  39  44 W6        30.17S
CHANDLER       CLEAR     64  41  42 W6        30.17S
$$

AZZ027-028-090200-
SOUTHWEST MARICOPA COUNTY AND PINAL COUNTY

CITY           SKY/WX    TMP DP  RH WIND       PRES   REMARKS
CASA GRANDE    NOT AVBL
GILA BEND      CLEAR     62  31  32 CALM      30.17S
$$

AZZ503-504-507>509-090200-
SOUTHEAST ARIZONA

CITY           SKY/WX    TMP DP  RH WIND       PRES   REMARKS
TUCSON         PTCLDY    61  37  41 NW3       30.20R
DAVIS-MONTHAN  CLEAR     58  34  40 NW6       30.19R
RYAN FIELD     CLEAR     59  36  41 NW6       30.19R
SIERRA VISTA   PTCLDY    53  30  40 VRB1      30.24R
DOUGLAS        CLEAR     54  34  46 E9        30.22R
SAFFORD        PTCLDY    55  33  43 E9        30.22R
$$

AZZ020-021-025-026-031-090200-
SOUTHWEST ARIZONA

CITY           SKY/WX    TMP DP  RH WIND       PRES   REMARKS
YUMA           CLEAR     64  17  16 N3        30.17S
$$

CAZ031-033-041-043-047-048-061-090200-
SOUTHERN CALIFORNIA

CITY           SKY/WX    TMP DP  RH WIND       PRES   REMARKS
DOWNTOWN L.A.  PTCLDY    60  50  69 W5        30.21R
L.A. AIRPORT   PTCLDY    59  52  77 W9        30.21F
SAN DIEGO      PTCLDY    61  52  72 NW7       30.23R
BURBANK        PTCLDY    61  39  44 S5        30.20S
ONTARIO        PTCLDY    61  44  53 SW7       30.20S
RIVERSIDE      FAIR      62  44  51 W5        30.20S
PALM SPRINGS   PTCLDY    63  26  24 VRB5      30.20S
EL CENTRO NAS  PTCLDY    60  35  39 N5        30.19S
IMPERIAL       PTCLDY    65  25  22 NE3       30.17S
BLYTHE         PTCLDY    60  20  21 E6        30.19S
NEEDLES        MOCLDY    58  11  15 N5        30.21S
$$

NVZ020-UTZ003-090200-
SOUTHERN NEVADA-UTAH

CITY           SKY/WX    TMP DP  RH WIND       PRES   REMARKS
LAS VEGAS      MOCLDY    51   7  16 CALM      30.22R
SALT LAKE CITY CLOUDY    26  22  84 N10       30.15S WCI  16
$$

NMZ009-TXZ055-090200-
NEW MEXICO-WEST TEXAS

CITY           SKY/WX    TMP DP  RH WIND       PRES   REMARKS
ALBUQUERQUE    PTCLDY    36  16  44 CALM      30.34R
EL PASO        PTCLDY    36  24  62 E12       30.39R WCI  28
$$


........................KEY........................
SKY/WX - SKY CONDITION/WEATHER
TMP    - TEMPERATURE IN FAHRENHEIT
DP     - DEW POINT IN FAHRENHEIT
RH     - RELATIVE HUMIDITY IN PERCENT
WIND   - DIRECTION AND SPEED IN MILES PER HOUR (MPH)
VRB    - VARIABLE WIND DIRECTION
PRES   - MEAN SEA LEVEL PRESSURE IN INCHES OF MERCURY
         F - FALLING PRESSURE   R - RISING PRESSURE
         S - STEADY PRESSURE
VSB    - VISIBILITY IN MILES
HX     - HEAT INDEX IN FAHRENHEIT
WCI    - WIND CHILL INDEX IN FAHRENHEIT
TC     - TEMPERATURE IN CELSIUS WHICH IS ALSO KNOWN AS
         TEMPERATURE IN CENTIGRADE
AFB    - AIR FORCE BASE
         LUKE AFB IS LUKE AIR FORCE BASE
         DAVIS-MONTHAN IS DAVIS-MONTHAN AIR FORCE BASE
NAS    - NAVAL AIR STATION
         EL CENTRO NAS IS EL CENTRO NAVAL AIR STATION
N/A    - NOT AVAILABLE





USA.gov is the U.S. government's official web portal to all federal, state and local government web resources and services.